Location: Pordenone
(45.9640°N, 12.6580°E)
Time: 18:03:01
(UTC+02:00)

ISS - Pass Details

Date: 15 May 2021
Orbit: 417 x 422 km, 51.6° (Epoch: 18 June)

Event Time Altitude Azimuth Distance (km) Brightness Sun altitude
Rises 22:00:25 0° 225° (SW) 2,352 0.1 -12.6°
Reaches altitude 10° 22:02:33 10° 219° (SW) 1,493 -1.0 -12.9°
Maximum altitude 22:05:46 46° 145° (SE) 569 -3.6 -13.3°
Drops below altitude 10° 22:09:02 10° 70° (ENE) 1,504 -1.2 -13.7°
Sets 22:11:11 0° 65° (ENE) 2,372 -0.1 -13.9°
